Year,Month,Day,Hour,Minute,Value (Times are PST for temperature in C)
2010,08,23,00,00,12.30
2010,08,23,00,01,12.30
2010,08,23,00,02,12.20
2010,08,23,00,03,12.20
2010,08,23,00,04,12.20
2010,08,23,00,05,12.20
2010,08,23,00,06,12.20
2010,08,23,00,07,12.20
2010,08,23,00,08,12.20
2010,08,23,00,09,12.10
2010,08,23,00,10,12.10
2010,08,23,00,11,12.10
2010,08,23,00,12,12.10
2010,08,23,00,13,12.10
2010,08,23,00,14,12.00
2010,08,23,00,15,12.00
2010,08,23,00,16,12.00
2010,08,23,00,17,12.00
2010,08,23,00,18,12.00
2010,08,23,00,19,11.90
2010,08,23,00,20,11.90
2010,08,23,00,21,11.90
2010,08,23,00,22,11.90
2010,08,23,00,23,11.90
2010,08,23,00,24,11.80
2010,08,23,00,25,11.80
2010,08,23,00,26,11.80
2010,08,23,00,27,11.80
2010,08,23,00,28,11.80
2010,08,23,00,29,11.80
2010,08,23,00,30,11.80
2010,08,23,00,31,11.70
2010,08,23,00,32,11.70
2010,08,23,00,33,11.70
2010,08,23,00,34,11.70
2010,08,23,00,35,11.70
2010,08,23,00,36,11.60
2010,08,23,00,37,11.60
2010,08,23,00,38,11.60
2010,08,23,00,39,11.60
2010,08,23,00,40,11.60
2010,08,23,00,41,11.50
2010,08,23,00,42,11.50
2010,08,23,00,43,11.50
2010,08,23,00,44,11.40
2010,08,23,00,45,11.40
2010,08,23,00,46,11.40
2010,08,23,00,47,11.40
2010,08,23,00,48,11.30
2010,08,23,00,49,11.30
2010,08,23,00,50,11.30
2010,08,23,00,51,11.30
2010,08,23,00,52,11.30
2010,08,23,00,53,11.20
2010,08,23,00,54,11.20
2010,08,23,00,55,11.20
2010,08,23,00,56,11.20
2010,08,23,00,57,11.20
2010,08,23,00,58,11.20
2010,08,23,00,59,11.20
2010,08,23,01,00,11.10
2010,08,23,01,01,11.10
2010,08,23,01,02,11.10
2010,08,23,01,03,11.10
2010,08,23,01,06,11.10
2010,08,23,01,07,11.00
2010,08,23,01,08,11.00
2010,08,23,01,09,11.00
2010,08,23,01,10,11.00
2010,08,23,01,11,11.00
2010,08,23,01,12,10.90
2010,08,23,01,13,10.90
2010,08,23,01,14,10.90
2010,08,23,01,15,10.90
2010,08,23,01,16,10.90
2010,08,23,01,17,10.80
2010,08,23,01,18,10.80
2010,08,23,01,19,10.80
2010,08,23,01,20,10.80
2010,08,23,01,21,10.80
2010,08,23,01,22,10.80
2010,08,23,01,23,10.80
2010,08,23,01,24,10.80
2010,08,23,01,25,10.70
2010,08,23,01,26,10.70
2010,08,23,01,27,10.70
2010,08,23,01,28,10.70
2010,08,23,01,29,10.70
2010,08,23,01,30,10.70
2010,08,23,01,31,10.70
2010,08,23,01,32,10.60
2010,08,23,01,33,10.60
2010,08,23,01,34,10.60
2010,08,23,01,35,10.60
2010,08,23,01,36,10.60
2010,08,23,01,37,10.60
2010,08,23,01,38,10.60
2010,08,23,01,39,10.60
2010,08,23,01,40,10.60
2010,08,23,01,41,10.50
2010,08,23,01,42,10.50
2010,08,23,01,43,10.50
2010,08,23,01,44,10.50
2010,08,23,01,45,10.50
2010,08,23,01,46,10.50
2010,08,23,01,47,10.40
2010,08,23,01,48,10.40
2010,08,23,01,49,10.40
2010,08,23,01,50,10.40
2010,08,23,01,51,10.40
2010,08,23,01,52,10.40
2010,08,23,01,53,10.40
2010,08,23,01,54,10.40
2010,08,23,01,55,10.40
2010,08,23,01,56,10.40
2010,08,23,01,57,10.40
2010,08,23,01,58,10.40
2010,08,23,01,59,10.40
2010,08,23,02,00,10.40
2010,08,23,02,01,10.40
2010,08,23,02,02,10.40
2010,08,23,02,03,10.40
2010,08,23,02,04,10.40
2010,08,23,02,05,10.40
2010,08,23,02,06,10.40
2010,08,23,02,07,10.40
2010,08,23,02,08,10.40
2010,08,23,02,09,10.40
2010,08,23,02,10,10.40
2010,08,23,02,11,10.40
2010,08,23,02,12,10.40
2010,08,23,02,13,10.40
2010,08,23,02,14,10.40
2010,08,23,02,15,10.30
2010,08,23,02,16,10.30
2010,08,23,02,17,10.30
2010,08,23,02,18,10.30
2010,08,23,02,19,10.30
2010,08,23,02,20,10.30
2010,08,23,02,21,10.30
2010,08,23,02,22,10.30
2010,08,23,02,23,10.30
2010,08,23,02,24,10.30
2010,08,23,02,25,10.30
2010,08,23,02,26,10.30
2010,08,23,02,27,10.30
2010,08,23,02,28,10.30
2010,08,23,02,29,10.20
2010,08,23,02,30,10.20
2010,08,23,02,31,10.20
2010,08,23,02,32,10.20
2010,08,23,02,33,10.20
2010,08,23,02,34,10.20
2010,08,23,02,35,10.20
2010,08,23,02,36,10.20
2010,08,23,02,37,10.20
2010,08,23,02,38,10.10
2010,08,23,02,39,10.10
2010,08,23,02,40,10.10
2010,08,23,02,41,10.10
2010,08,23,02,42,10.10
2010,08,23,02,43,10.10
2010,08,23,02,44,10.10
2010,08,23,02,45,10.10
2010,08,23,02,46,10.10
2010,08,23,02,47,10.00
2010,08,23,02,48,10.00
2010,08,23,02,49,10.00
2010,08,23,02,50,10.00
2010,08,23,02,51,9.90
2010,08,23,02,52,9.90
2010,08,23,02,53,9.90
2010,08,23,02,54,9.90
2010,08,23,02,55,9.90
2010,08,23,02,56,9.90
2010,08,23,02,57,9.90
2010,08,23,02,58,9.90
2010,08,23,02,59,9.90
2010,08,23,03,00,9.80
2010,08,23,03,01,9.80
2010,08,23,03,02,9.80
2010,08,23,03,03,9.80
2010,08,23,03,04,9.80
2010,08,23,03,05,9.80
2010,08,23,03,06,9.80
2010,08,23,03,07,9.80
2010,08,23,03,08,9.80
2010,08,23,03,09,9.80
2010,08,23,03,10,9.80
2010,08,23,03,11,9.80
2010,08,23,03,12,9.70
2010,08,23,03,13,9.70
2010,08,23,03,14,9.70
2010,08,23,03,15,9.70
2010,08,23,03,16,9.70
2010,08,23,03,17,9.70
2010,08,23,03,18,9.70
2010,08,23,03,19,9.70
2010,08,23,03,20,9.70
2010,08,23,03,21,9.70
2010,08,23,03,22,9.70
2010,08,23,03,23,9.70
2010,08,23,03,24,9.70
2010,08,23,03,25,9.70
2010,08,23,03,26,9.70
2010,08,23,03,27,9.70
2010,08,23,03,28,9.70
2010,08,23,03,29,9.70
2010,08,23,03,30,9.70
2010,08,23,03,31,9.70
2010,08,23,03,32,9.70
2010,08,23,03,33,9.70
2010,08,23,03,34,9.70
2010,08,23,03,35,9.80
2010,08,23,03,36,9.80
2010,08,23,03,37,9.80
2010,08,23,03,38,9.80
2010,08,23,03,39,9.80
2010,08,23,03,40,9.80
2010,08,23,03,41,9.80
2010,08,23,03,42,9.80
2010,08,23,03,43,9.80
2010,08,23,03,44,9.80
2010,08,23,03,45,9.80
2010,08,23,03,46,9.80
2010,08,23,03,47,9.80
2010,08,23,03,48,9.90
2010,08,23,03,49,9.90
2010,08,23,03,50,9.90
2010,08,23,03,51,9.90
2010,08,23,03,52,9.90
2010,08,23,03,53,10.00
2010,08,23,03,54,10.10
2010,08,23,03,55,10.10
2010,08,23,03,56,10.10
2010,08,23,03,57,10.10
2010,08,23,03,58,10.20
2010,08,23,03,59,10.20
2010,08,23,04,00,10.30
2010,08,23,04,01,10.30
2010,08,23,04,02,10.30
2010,08,23,04,03,10.40
2010,08,23,04,04,10.40
2010,08,23,04,05,10.50
2010,08,23,04,06,10.50
2010,08,23,04,07,10.60
2010,08,23,04,08,10.60
2010,08,23,04,09,10.60
2010,08,23,04,10,10.60
2010,08,23,04,11,10.60
2010,08,23,04,12,10.60
2010,08,23,04,13,10.70
2010,08,23,04,14,10.70
2010,08,23,04,15,10.70
2010,08,23,04,16,10.70
2010,08,23,04,17,10.70
2010,08,23,04,18,10.70
2010,08,23,04,19,10.70
2010,08,23,04,20,10.60
2010,08,23,04,21,10.60
2010,08,23,04,22,10.60
2010,08,23,04,23,10.60
2010,08,23,04,24,10.60
2010,08,23,04,25,10.60
2010,08,23,04,26,10.60
2010,08,23,04,27,10.60
2010,08,23,04,28,10.60
2010,08,23,04,29,10.60
2010,08,23,04,30,10.60
2010,08,23,04,31,10.60
2010,08,23,04,32,10.50
2010,08,23,04,33,10.50
2010,08,23,04,34,10.50
2010,08,23,04,35,10.50
2010,08,23,04,36,10.50
2010,08,23,04,37,10.50
2010,08,23,04,38,10.50
2010,08,23,04,39,10.50
2010,08,23,04,40,10.50
2010,08,23,04,41,10.40
2010,08,23,04,42,10.40
2010,08,23,04,43,10.40
2010,08,23,04,44,10.40
2010,08,23,04,45,10.40
2010,08,23,04,46,10.40
2010,08,23,04,47,10.40
2010,08,23,04,48,10.50
2010,08,23,04,49,10.40
2010,08,23,04,50,10.40
2010,08,23,04,51,10.40
2010,08,23,04,52,10.40
2010,08,23,04,53,10.40
2010,08,23,04,54,10.40
2010,08,23,04,55,10.40
2010,08,23,04,56,10.40
2010,08,23,04,57,10.40
2010,08,23,04,58,10.30
2010,08,23,04,59,10.30
2010,08,23,05,00,10.30
2010,08,23,05,01,10.30
2010,08,23,05,02,10.30
2010,08,23,05,03,10.20
2010,08,23,05,04,10.20
2010,08,23,05,05,10.20
2010,08,23,05,06,10.20
2010,08,23,05,07,10.20
2010,08,23,05,08,10.10
2010,08,23,05,09,10.10
2010,08,23,05,10,10.10
2010,08,23,05,11,10.10
2010,08,23,05,12,10.10
2010,08,23,05,13,10.10
2010,08,23,05,14,10.10
2010,08,23,05,15,10.10
2010,08,23,05,16,10.10
2010,08,23,05,17,10.10
2010,08,23,05,18,10.10
2010,08,23,05,19,10.10
2010,08,23,05,20,10.10
2010,08,23,05,21,10.10
2010,08,23,05,22,10.10
2010,08,23,05,23,10.20
2010,08,23,05,24,10.20
2010,08,23,05,25,10.20
2010,08,23,05,26,10.30
2010,08,23,05,27,10.30
2010,08,23,05,28,10.30
2010,08,23,05,29,10.30
2010,08,23,05,30,10.30
2010,08,23,05,31,10.40
2010,08,23,05,32,10.40
2010,08,23,05,33,10.40
2010,08,23,05,34,10.40
2010,08,23,05,35,10.40
2010,08,23,05,36,10.40
2010,08,23,05,37,10.40
2010,08,23,05,38,10.40
2010,08,23,05,39,10.40
2010,08,23,05,40,10.40
2010,08,23,05,41,10.40
2010,08,23,05,42,10.40
2010,08,23,05,43,10.40
2010,08,23,05,44,10.40
2010,08,23,05,45,10.40
2010,08,23,05,46,10.40
2010,08,23,05,47,10.40
2010,08,23,05,48,10.40
2010,08,23,05,49,10.40
2010,08,23,05,50,10.40
2010,08,23,05,51,10.40
2010,08,23,05,52,10.40
2010,08,23,05,53,10.40
2010,08,23,05,54,10.40
2010,08,23,05,55,10.40
2010,08,23,05,56,10.40
2010,08,23,05,57,10.40
2010,08,23,05,58,10.40
2010,08,23,05,59,10.40
2010,08,23,06,00,10.40
2010,08,23,06,01,10.30
2010,08,23,06,02,10.30
2010,08,23,06,03,10.30
2010,08,23,06,04,10.30
2010,08,23,06,05,10.30
2010,08,23,06,06,10.20
2010,08,23,06,07,10.20
2010,08,23,06,08,10.20
2010,08,23,06,09,10.20
2010,08,23,06,10,10.10
2010,08,23,06,11,10.10
2010,08,23,06,12,10.10
2010,08,23,06,13,10.10
2010,08,23,06,14,10.10
2010,08,23,06,15,10.10
2010,08,23,06,16,10.10
2010,08,23,06,17,10.10
2010,08,23,06,18,10.10
2010,08,23,06,19,10.10
2010,08,23,06,20,10.10
2010,08,23,06,21,10.10
2010,08,23,06,22,10.10
2010,08,23,06,23,10.10
2010,08,23,06,24,10.10
2010,08,23,06,25,10.00
2010,08,23,06,26,10.00
2010,08,23,06,27,9.90
2010,08,23,06,28,9.90
2010,08,23,06,29,9.90
2010,08,23,06,30,9.80
2010,08,23,06,31,9.80
2010,08,23,06,32,9.80
2010,08,23,06,33,9.70
2010,08,23,06,34,9.70
2010,08,23,06,35,9.70
2010,08,23,06,36,9.70
2010,08,23,06,37,9.60
2010,08,23,06,38,9.60
2010,08,23,06,39,9.60
2010,08,23,06,40,9.60
2010,08,23,06,41,9.60
2010,08,23,06,42,9.50
2010,08,23,06,43,9.50
2010,08,23,06,44,9.50
2010,08,23,06,45,9.50
2010,08,23,06,46,9.40
2010,08,23,06,47,9.40
2010,08,23,06,48,9.40
2010,08,23,06,49,9.40
2010,08,23,06,50,9.40
2010,08,23,06,51,9.40
2010,08,23,06,52,9.30
2010,08,23,06,53,9.30
2010,08,23,06,54,9.30
2010,08,23,06,55,9.30
2010,08,23,06,56,9.30
2010,08,23,06,57,9.30
2010,08,23,06,58,9.30
2010,08,23,06,59,9.30
2010,08,23,07,00,9.30
2010,08,23,07,01,9.30
2010,08,23,07,02,9.30
2010,08,23,07,03,9.30
2010,08,23,07,04,9.30
2010,08,23,07,05,9.30
2010,08,23,07,06,9.30
2010,08,23,07,07,9.30
2010,08,23,07,08,9.30
2010,08,23,07,09,9.30
2010,08,23,07,10,9.30
2010,08,23,07,11,9.30
2010,08,23,07,12,9.30
2010,08,23,07,13,9.30
2010,08,23,07,14,9.30
2010,08,23,07,15,9.30
2010,08,23,07,16,9.30
2010,08,23,07,17,9.30
2010,08,23,07,18,9.40
2010,08,23,07,19,9.40
2010,08,23,07,20,9.40
2010,08,23,07,21,9.40
2010,08,23,07,22,9.40
2010,08,23,07,23,9.50
2010,08,23,07,24,9.50
2010,08,23,07,25,9.50
2010,08,23,07,26,9.50
2010,08,23,07,27,9.60
2010,08,23,07,28,9.60
2010,08,23,07,29,9.60
2010,08,23,07,30,9.60
2010,08,23,07,31,9.60
2010,08,23,07,32,9.60
2010,08,23,07,33,9.60
2010,08,23,07,34,9.60
2010,08,23,07,35,9.60
2010,08,23,07,36,9.60
2010,08,23,07,37,9.60
2010,08,23,07,38,9.60
2010,08,23,07,39,9.60
2010,08,23,07,40,9.60
2010,08,23,07,41,9.60
2010,08,23,07,42,9.60
2010,08,23,07,43,9.60
2010,08,23,07,44,9.60
2010,08,23,07,45,9.60
2010,08,23,07,46,9.60
2010,08,23,07,47,9.60
2010,08,23,07,48,9.60
2010,08,23,07,49,9.60
2010,08,23,07,50,9.60
2010,08,23,07,51,9.60
2010,08,23,07,52,9.60
2010,08,23,07,53,9.60
2010,08,23,07,54,9.60
2010,08,23,07,55,9.60
2010,08,23,07,56,9.60
2010,08,23,07,57,9.60
2010,08,23,07,58,9.60
2010,08,23,07,59,9.60
2010,08,23,08,00,9.60
2010,08,23,08,01,9.60
2010,08,23,08,02,9.60
2010,08,23,08,03,9.60
2010,08,23,08,04,9.60
2010,08,23,08,05,9.60
2010,08,23,08,06,9.60
2010,08,23,08,07,9.70
2010,08,23,08,08,9.70
2010,08,23,08,09,9.70
2010,08,23,08,10,9.70
2010,08,23,08,11,9.70
2010,08,23,08,12,9.70
2010,08,23,08,13,9.70
2010,08,23,08,14,9.70
2010,08,23,08,15,9.70
2010,08,23,08,16,9.70
2010,08,23,08,17,9.70
2010,08,23,08,18,9.80
2010,08,23,08,19,9.80
2010,08,23,08,20,9.80
2010,08,23,08,21,9.80
2010,08,23,08,22,9.80
2010,08,23,08,23,9.90
2010,08,23,08,24,9.90
2010,08,23,08,25,10.00
2010,08,23,08,26,10.00
2010,08,23,08,27,10.10
2010,08,23,08,28,10.10
2010,08,23,08,29,10.10
2010,08,23,08,30,10.20
2010,08,23,08,31,10.20
2010,08,23,08,32,10.20
2010,08,23,08,33,10.30
2010,08,23,08,34,10.30
2010,08,23,08,35,10.30
2010,08,23,08,36,10.40
2010,08,23,08,37,10.40
2010,08,23,08,38,10.40
2010,08,23,08,39,10.50
2010,08,23,08,40,10.50
2010,08,23,08,41,10.50
2010,08,23,08,42,10.60
2010,08,23,08,43,10.60
2010,08,23,08,44,10.60
2010,08,23,08,45,10.60
2010,08,23,08,46,10.70
2010,08,23,08,47,10.70
2010,08,23,08,48,10.70
2010,08,23,08,49,10.80
2010,08,23,08,50,10.80
2010,08,23,08,51,10.80
2010,08,23,08,52,10.90
2010,08,23,08,53,10.90
2010,08,23,08,54,10.90
2010,08,23,08,55,11.00
2010,08,23,08,56,11.00
2010,08,23,08,57,11.00
2010,08,23,08,58,11.10
2010,08,23,08,59,11.10
2010,08,23,09,00,11.10
2010,08,23,09,01,11.20
2010,08,23,09,02,11.20
2010,08,23,09,03,11.20
2010,08,23,09,04,11.30
2010,08,23,09,05,11.30
2010,08,23,09,06,11.30
2010,08,23,09,07,11.40
2010,08,23,09,08,11.40
2010,08,23,09,09,11.40
2010,08,23,09,10,11.50
2010,08,23,09,11,11.50
2010,08,23,09,12,11.60
2010,08,23,09,13,11.60
2010,08,23,09,14,11.60
2010,08,23,09,15,11.70
2010,08,23,09,16,11.70
2010,08,23,09,17,11.70
2010,08,23,09,18,11.80
2010,08,23,09,19,11.80
2010,08,23,09,20,11.80
2010,08,23,09,21,11.90
2010,08,23,09,22,11.90
2010,08,23,09,23,11.90
2010,08,23,09,24,11.90
2010,08,23,09,25,12.00
2010,08,23,09,26,12.00
2010,08,23,09,27,12.00
2010,08,23,09,28,12.10
2010,08,23,09,29,12.10
2010,08,23,09,30,12.20
2010,08,23,09,31,12.20
2010,08,23,09,32,12.30
2010,08,23,09,33,12.30
2010,08,23,09,34,12.40
2010,08,23,09,35,12.40
2010,08,23,09,36,12.50
2010,08,23,09,37,12.60
2010,08,23,09,38,12.70
2010,08,23,09,39,12.70
2010,08,23,09,40,12.80
2010,08,23,09,41,12.90
2010,08,23,09,42,13.00
2010,08,23,09,43,13.00
2010,08,23,09,44,13.10
2010,08,23,09,45,13.20
2010,08,23,09,46,13.20
2010,08,23,09,47,13.20
2010,08,23,09,48,13.30
2010,08,23,09,49,13.40
2010,08,23,09,50,13.40
2010,08,23,09,51,13.50
2010,08,23,09,52,13.50
2010,08,23,09,53,13.60
2010,08,23,09,54,13.60
2010,08,23,09,55,13.70
2010,08,23,09,56,13.70
2010,08,23,09,57,13.80
2010,08,23,09,58,13.90
2010,08,23,09,59,14.00
2010,08,23,10,00,14.10
2010,08,23,10,01,14.10
2010,08,23,10,02,14.20
2010,08,23,10,03,14.20
2010,08,23,10,04,14.30
2010,08,23,10,05,14.40
2010,08,23,10,06,14.40
2010,08,23,10,07,14.50
2010,08,23,10,08,14.60
2010,08,23,10,09,14.60
2010,08,23,10,10,14.70
2010,08,23,10,11,14.70
2010,08,23,10,12,14.80
2010,08,23,10,13,14.80
2010,08,23,10,14,14.90
2010,08,23,10,15,14.90
2010,08,23,10,16,15.00
2010,08,23,10,17,15.00
2010,08,23,10,18,15.00
2010,08,23,10,19,15.00
2010,08,23,10,20,15.00
2010,08,23,10,21,15.00
2010,08,23,10,22,15.00
2010,08,23,10,23,15.00
2010,08,23,10,24,15.00
2010,08,23,10,25,15.00
2010,08,23,10,26,15.00
2010,08,23,10,27,15.00
2010,08,23,10,28,15.10
2010,08,23,10,29,15.20
2010,08,23,10,30,15.20
2010,08,23,10,31,15.30
2010,08,23,10,32,15.30
2010,08,23,10,33,15.30
2010,08,23,10,34,15.40
2010,08,23,10,35,15.40
2010,08,23,10,36,15.40
2010,08,23,10,37,15.50
2010,08,23,10,38,15.60
2010,08,23,10,39,15.60
2010,08,23,10,40,15.70
2010,08,23,10,41,15.70
2010,08,23,10,42,15.80
2010,08,23,10,43,15.80
2010,08,23,10,44,15.90
2010,08,23,10,45,16.00
2010,08,23,10,46,16.00
2010,08,23,10,47,16.10
2010,08,23,10,48,16.10
2010,08,23,10,49,16.20
2010,08,23,10,50,16.20
2010,08,23,10,51,16.30
2010,08,23,10,52,16.30
2010,08,23,10,53,16.40
2010,08,23,10,54,16.40
2010,08,23,10,55,16.50
2010,08,23,10,56,16.50
2010,08,23,10,57,16.60
2010,08,23,10,58,16.70
2010,08,23,10,59,16.80
2010,08,23,11,00,16.90
2010,08,23,11,01,16.90
2010,08,23,11,02,17.00
2010,08,23,11,03,17.10
2010,08,23,11,04,17.20
2010,08,23,11,05,17.30
2010,08,23,11,06,17.30
2010,08,23,11,07,17.40
2010,08,23,11,08,17.50
2010,08,23,11,09,17.60
2010,08,23,11,10,17.70
2010,08,23,11,11,17.80
2010,08,23,11,12,17.90
2010,08,23,11,13,18.00
2010,08,23,11,14,18.10
2010,08,23,11,15,18.20
2010,08,23,11,16,18.20
2010,08,23,11,17,18.30
2010,08,23,11,18,18.30
2010,08,23,11,19,18.40
2010,08,23,11,20,18.50
2010,08,23,11,21,18.40
2010,08,23,11,22,18.40
2010,08,23,11,23,18.30
2010,08,23,11,24,18.30
2010,08,23,11,25,18.30
2010,08,23,11,26,18.30
2010,08,23,11,27,18.40
2010,08,23,11,28,18.40
2010,08,23,11,29,18.50
2010,08,23,11,30,18.50
2010,08,23,11,31,18.60
2010,08,23,11,32,18.60
2010,08,23,11,33,18.70
2010,08,23,11,34,18.70
2010,08,23,11,35,18.80
2010,08,23,11,36,18.80
2010,08,23,11,37,18.80
2010,08,23,11,38,18.80
2010,08,23,11,39,18.80
2010,08,23,11,40,18.80
2010,08,23,11,41,18.90
2010,08,23,11,42,18.90
2010,08,23,11,43,18.90
2010,08,23,11,44,18.90
2010,08,23,11,45,18.90
2010,08,23,11,46,18.90
2010,08,23,11,47,18.90
2010,08,23,11,48,19.00
2010,08,23,11,49,19.00
2010,08,23,11,50,19.00
2010,08,23,11,51,19.10
2010,08,23,11,52,19.10
2010,08,23,11,53,19.10
2010,08,23,11,54,19.10
2010,08,23,11,55,19.10
2010,08,23,11,56,19.10
2010,08,23,11,57,19.10
2010,08,23,11,58,19.10
2010,08,23,11,59,19.10
2010,08,23,12,00,19.10
2010,08,23,12,01,19.20
2010,08,23,12,02,19.10
2010,08,23,12,03,19.10
2010,08,23,12,04,19.10
2010,08,23,12,05,19.10
2010,08,23,12,06,19.10
2010,08,23,12,07,19.00
2010,08,23,12,08,19.10
2010,08,23,12,09,19.10
2010,08,23,12,10,19.00
2010,08,23,12,11,19.00
2010,08,23,12,12,19.00
2010,08,23,12,13,19.00
2010,08,23,12,14,19.10
2010,08,23,12,15,19.20
2010,08,23,12,16,19.30
2010,08,23,12,17,19.30
2010,08,23,12,18,19.40
2010,08,23,12,19,19.40
2010,08,23,12,20,19.50
2010,08,23,12,21,19.60
2010,08,23,12,22,19.70
2010,08,23,12,23,19.80
2010,08,23,12,24,19.80
2010,08,23,12,25,19.90
2010,08,23,12,26,19.90
2010,08,23,12,27,20.00
2010,08,23,12,28,20.00
2010,08,23,12,29,20.10
2010,08,23,12,30,20.20
2010,08,23,12,31,20.20
2010,08,23,12,32,20.30
2010,08,23,12,33,20.30
2010,08,23,12,34,20.40
2010,08,23,12,35,20.40
2010,08,23,12,36,20.40
2010,08,23,12,37,20.50
2010,08,23,12,38,20.60
2010,08,23,12,39,20.60
2010,08,23,12,40,20.70
2010,08,23,12,41,20.70
2010,08,23,12,42,20.80
2010,08,23,12,43,20.80
2010,08,23,12,44,20.80
2010,08,23,12,45,20.80
2010,08,23,12,46,20.80
2010,08,23,12,47,20.80
2010,08,23,12,48,20.80
2010,08,23,12,49,20.80
2010,08,23,12,50,20.80
2010,08,23,12,51,20.80
2010,08,23,12,52,20.80
2010,08,23,12,53,20.80
2010,08,23,12,54,20.80
2010,08,23,12,55,20.80
2010,08,23,12,56,20.70
2010,08,23,12,57,20.70
2010,08,23,12,58,20.70
2010,08,23,12,59,20.60
2010,08,23,13,00,20.60
2010,08,23,13,01,20.60
2010,08,23,13,02,20.50
2010,08,23,13,03,20.50
2010,08,23,13,04,20.50
2010,08,23,13,05,20.50
2010,08,23,13,06,20.50
2010,08,23,13,07,20.60
2010,08,23,13,08,20.60
2010,08,23,13,09,20.60
2010,08,23,13,10,20.60
2010,08,23,13,11,20.60
2010,08,23,13,12,20.60
2010,08,23,13,13,20.60
2010,08,23,13,14,20.60
2010,08,23,13,15,20.70
2010,08,23,13,16,20.70
2010,08,23,13,17,20.70
2010,08,23,13,18,20.70
2010,08,23,13,19,20.80
2010,08,23,13,20,20.80
2010,08,23,13,21,20.80
2010,08,23,13,22,20.80
2010,08,23,13,23,20.80
2010,08,23,13,24,20.80
2010,08,23,13,25,20.80
2010,08,23,13,26,20.90
2010,08,23,13,27,20.90
2010,08,23,13,28,21.00
2010,08,23,13,29,21.00
2010,08,23,13,30,21.10
2010,08,23,13,31,21.10
2010,08,23,13,32,21.10
2010,08,23,13,33,21.10
2010,08,23,13,34,21.10
2010,08,23,13,35,21.10
2010,08,23,13,36,21.10
2010,08,23,13,37,21.10
2010,08,23,13,38,21.10
2010,08,23,13,39,21.20
2010,08,23,13,40,21.20
2010,08,23,13,41,21.30
2010,08,23,13,42,21.30
2010,08,23,13,43,21.40
2010,08,23,13,44,21.40
2010,08,23,13,45,21.50
2010,08,23,13,46,21.60
2010,08,23,13,47,21.70
2010,08,23,13,48,21.70
2010,08,23,13,49,21.80
2010,08,23,13,50,21.80
2010,08,23,13,51,21.90
2010,08,23,13,52,21.90
2010,08,23,13,53,22.00
2010,08,23,13,54,21.90
2010,08,23,13,55,21.90
2010,08,23,13,56,21.90
2010,08,23,13,57,21.90
2010,08,23,13,58,21.90
2010,08,23,13,59,21.90
2010,08,23,14,00,22.00
2010,08,23,14,01,22.10
2010,08,23,14,02,22.20
2010,08,23,14,03,22.30
2010,08,23,14,04,22.40
2010,08,23,14,05,22.40
2010,08,23,14,06,22.40
2010,08,23,14,07,22.40
2010,08,23,14,08,22.40
2010,08,23,14,09,22.40
2010,08,23,14,10,22.40
2010,08,23,14,11,22.50
2010,08,23,14,12,22.50
2010,08,23,14,13,22.50
2010,08,23,14,14,22.40
2010,08,23,14,15,22.50
2010,08,23,14,16,22.50
2010,08,23,14,17,22.50
2010,08,23,14,18,22.60
2010,08,23,14,19,22.60
2010,08,23,14,20,22.60
2010,08,23,14,21,22.60
2010,08,23,14,22,22.70
2010,08,23,14,23,22.70
2010,08,23,14,24,22.70
2010,08,23,14,25,22.80
2010,08,23,14,26,22.80
2010,08,23,14,27,22.80
2010,08,23,14,28,22.80
2010,08,23,14,29,22.90
2010,08,23,14,30,22.90
2010,08,23,14,31,23.00
2010,08,23,14,32,23.10
2010,08,23,14,33,23.10
2010,08,23,14,34,23.10
2010,08,23,14,35,23.20
2010,08,23,14,36,23.20
2010,08,23,14,37,23.30
2010,08,23,14,38,23.30
2010,08,23,14,39,23.30
2010,08,23,14,40,23.30
2010,08,23,14,41,23.30
2010,08,23,14,42,23.20
2010,08,23,14,43,23.10
2010,08,23,14,44,23.00
2010,08,23,14,45,22.90
2010,08,23,14,46,22.90
2010,08,23,14,47,23.00
2010,08,23,14,48,23.10
2010,08,23,14,49,23.10
2010,08,23,14,50,23.20
2010,08,23,14,51,23.30
2010,08,23,14,52,23.40
2010,08,23,14,53,23.40
2010,08,23,14,54,23.40
2010,08,23,14,55,23.40
2010,08,23,14,56,23.50
2010,08,23,14,57,23.50
2010,08,23,14,58,23.50
2010,08,23,14,59,23.50
2010,08,23,15,00,23.50
2010,08,23,15,01,23.50
2010,08,23,15,02,23.40
2010,08,23,15,03,23.50
2010,08,23,15,04,23.60
2010,08,23,15,05,23.60
2010,08,23,15,06,23.70
2010,08,23,15,07,23.80
2010,08,23,15,08,23.90
2010,08,23,15,09,23.90
2010,08,23,15,10,23.90
2010,08,23,15,11,23.90
2010,08,23,15,12,23.90
2010,08,23,15,13,23.90
2010,08,23,15,14,23.90
2010,08,23,15,15,23.90
2010,08,23,15,16,23.90
2010,08,23,15,17,23.90
2010,08,23,15,18,23.90
2010,08,23,15,19,23.90
2010,08,23,15,20,23.90
2010,08,23,15,21,23.80
2010,08,23,15,22,23.60
2010,08,23,15,23,23.50
2010,08,23,15,24,23.40
2010,08,23,15,25,23.40
2010,08,23,15,26,23.40
2010,08,23,15,27,23.40
2010,08,23,15,28,23.50
2010,08,23,15,29,23.50
2010,08,23,15,30,23.60
2010,08,23,15,31,23.60
2010,08,23,15,32,23.60
2010,08,23,15,33,23.70
2010,08,23,15,34,23.70
2010,08,23,15,35,23.70
2010,08,23,15,36,23.60
2010,08,23,15,37,23.60
2010,08,23,15,38,23.60
2010,08,23,15,39,23.60
2010,08,23,15,40,23.70
2010,08,23,15,41,23.70
2010,08,23,15,42,23.70
2010,08,23,15,43,23.70
2010,08,23,15,44,23.70
2010,08,23,15,45,23.80
2010,08,23,15,46,23.80
2010,08,23,15,47,23.80
2010,08,23,15,48,23.80
2010,08,23,15,49,23.70
2010,08,23,15,50,23.60
2010,08,23,15,51,23.60
2010,08,23,15,52,23.50
2010,08,23,15,53,23.50
2010,08,23,15,54,23.50
2010,08,23,15,55,23.50
2010,08,23,15,56,23.40
2010,08,23,15,57,23.40
2010,08,23,15,58,23.40
2010,08,23,15,59,23.40
2010,08,23,16,00,23.40
2010,08,23,16,01,23.40
2010,08,23,16,02,23.40
2010,08,23,16,03,23.40
2010,08,23,16,04,23.50
2010,08,23,16,05,23.50
2010,08,23,16,06,23.50
2010,08,23,16,07,23.40
2010,08,23,16,08,23.40
2010,08,23,16,09,23.40
2010,08,23,16,10,23.40
2010,08,23,16,11,23.30
2010,08,23,16,12,23.20
2010,08,23,16,13,23.10
2010,08,23,16,14,23.00
2010,08,23,16,15,23.00
2010,08,23,16,16,23.00
2010,08,23,16,17,23.00
2010,08,23,16,18,23.00
2010,08,23,16,19,22.90
2010,08,23,16,20,22.80
2010,08,23,16,21,22.80
2010,08,23,16,22,22.80
2010,08,23,16,23,22.80
2010,08,23,16,24,22.80
2010,08,23,16,25,22.80
2010,08,23,16,26,22.80
2010,08,23,16,27,22.70
2010,08,23,16,28,22.70
2010,08,23,16,29,22.70
2010,08,23,16,30,22.60
2010,08,23,16,31,22.60
2010,08,23,16,32,22.60
2010,08,23,16,33,22.60
2010,08,23,16,34,22.60
2010,08,23,16,35,22.60
2010,08,23,16,36,22.60
2010,08,23,16,37,22.60
2010,08,23,16,38,22.60
2010,08,23,16,39,22.60
2010,08,23,16,40,22.70
2010,08,23,16,41,22.70
2010,08,23,16,42,22.70
2010,08,23,16,43,22.60
2010,08,23,16,44,22.60
2010,08,23,16,45,22.60
2010,08,23,16,46,22.60
2010,08,23,16,47,22.60
2010,08,23,16,48,22.60
2010,08,23,16,49,22.60
2010,08,23,16,50,22.60
2010,08,23,16,51,22.60
2010,08,23,16,52,22.60
2010,08,23,16,53,22.60
2010,08,23,16,54,22.60
2010,08,23,16,55,22.70
2010,08,23,16,56,22.70
2010,08,23,16,57,22.70
2010,08,23,16,58,22.80
2010,08,23,16,59,22.80
2010,08,23,17,00,22.90
2010,08,23,17,01,22.90
2010,08,23,17,02,23.00
2010,08,23,17,03,23.00
2010,08,23,17,04,23.10
2010,08,23,17,05,23.10
2010,08,23,17,06,23.00
2010,08,23,17,07,23.00
2010,08,23,17,08,22.90
2010,08,23,17,09,22.80
2010,08,23,17,10,22.80
2010,08,23,17,11,22.80
2010,08,23,17,12,22.80
2010,08,23,17,13,22.80
2010,08,23,17,14,22.80
2010,08,23,17,15,22.80
2010,08,23,17,16,22.80
2010,08,23,17,17,22.80
2010,08,23,17,18,22.80
2010,08,23,17,19,22.80
2010,08,23,17,20,22.80
2010,08,23,17,21,22.80
2010,08,23,17,22,22.80
2010,08,23,17,23,22.80
2010,08,23,17,24,22.80
2010,08,23,17,25,22.80
2010,08,23,17,26,22.80
2010,08,23,17,27,22.80
2010,08,23,17,28,22.80
2010,08,23,17,29,22.90